1505131200.05,22193,16.13,73506.3,7.13,6.35,6.43,0,*72
1505131201.28,22194,16.13,73506.8,7.13,6.35,6.43,0,*75
1505131202.51,22195,16.13,73510.3,7.13,6.43,6.43,0,*75
1505131203.69,22196,16.13,73510.8,7.13,6.11,6.21,0,*75
1505131204.9,22197,16.13,73508.3,7.13,6.33,6.43,0,*70
1505131206.13,22198,16.13,73510.0,7.11,6.21,6.17,0,*7F
1505131207.32,22199,16.13,73504.5,7.13,6.03,6.11,0,*7A
1505131208.53,22200,16.13,73510.8,7.15,6.03,6.11,0,*7F
1505131209.79,22201,16.13,73512.0,7.15,5.81,5.89,0,*75
1505131210.99,22202,16.13,73516.5,7.15,5.71,5.71,0,*7E
1505131212.21,22203,16.13,73512.8,7.15,5.67,5.67,0,*7F
1505131213.43,22204,16.13,73512.0,7.13,5.55,5.55,0,*7E
1505131214.62,22205,16.13,73510.3,7.13,5.51,5.63,0,*7E
1505131215.8,22206,16.13,73508.3,7.13,5.71,5.71,0,*7C
1505131217.04,22207,16.13,73510.5,7.11,5.77,5.73,0,*7B
1505131218.27,22208,16.13,73504.5,7.13,5.89,5.93,0,*79
1505131219.49,22209,16.13,73508.5,7.13,5.81,5.89,0,*7B
1505131220.72,22210,16.13,73510.5,7.13,5.93,5.93,0,*7B
1505131221.9,22211,16.13,73510.8,7.13,5.63,5.67,0,*7E
1505131223.15,22212,16.13,73508.5,7.11,5.73,5.73,0,*7B
1505131224.35,22213,16.13,73504.8,7.11,5.67,5.63,0,*7E
1505131225.55,22214,16.13,73504.5,7.11,5.37,5.37,0,*7D
1505131226.72,22215,16.13,73504.0,7.13,5.33,5.41,0,*7B
1505131227.92,22216,16.13,73508.0,7.11,5.37,5.37,0,*7F
1505131229.11,22217,16.13,73504.3,7.13,5.45,5.51,0,*79
1505131230.33,22218,16.13,73502.5,7.11,5.27,5.29,0,*7F
1505131231.53,22219,16.13,73502.0,7.09,5.27,5.23,0,*7D
1505131232.73,22220,16.13,73502.8,7.09,5.15,5.27,0,*72
1505131233.95,22221,16.13,73502.3,7.07,5.27,5.33,0,*79
1505131235.18,22222,16.13,73500.5,7.07,5.49,5.55,0,*72
1505131236.38,22223,16.13,73500.3,7.07,5.63,5.63,0,*7E
1505131237.58,22224,16.13,73498.5,7.07,5.45,5.45,0,*79
1505131238.8,22225,16.13,73490.3,7.09,5.55,5.55,0,*76
1505131240.0,22226,16.13,73488.8,7.07,5.63,5.71,0,*78
1505131241.23,22227,16.13,73484.3,7.07,5.71,5.73,0,*78
1505131242.45,22228,16.13,73486.0,7.07,5.71,5.73,0,*77
1505131243.68,22229,16.13,73480.3,7.07,5.93,6.03,0,*7E
1505131244.91,22230,16.13,73486.8,7.09,6.13,6.13,0,*72
1505131246.14,22231,16.13,73484.8,7.07,6.17,6.25,0,*7C
1505131247.31,22232,16.13,73480.5,7.09,6.07,6.07,0,*70
1505131248.53,22233,16.13,73488.3,7.09,5.55,5.55,0,*71
1505131249.78,22234,16.13,73478.3,7.07,5.81,5.81,0,*78
1505131251.01,22235,16.13,73486.3,7.09,5.81,5.85,0,*73
1505131252.23,22236,16.13,73482.8,7.09,5.81,5.81,0,*74
1505131253.48,22237,16.13,73486.3,7.07,5.73,5.73,0,*7B
1505131254.71,22238,16.13,73482.8,7.09,5.93,5.85,0,*7D
1505131255.9,22239,16.13,73484.8,7.09,6.03,6.03,0,*7B
1505131257.08,22240,16.13,73492.5,7.09,5.95,5.95,0,*75
1505131258.27,22241,16.13,73494.5,7.09,6.03,6.03,0,*74
1505131259.51,22242,16.13,73492.5,7.11,5.77,5.89,0,*7F
1505131260.75,22243,16.13,73492.0,7.11,5.77,5.77,0,*7F
1505131261.95,22244,16.13,73494.5,7.09,5.93,5.95,0,*77
1505131263.16,22245,16.13,73498.0,7.09,6.03,6.13,0,*71
1505131264.4,22246,16.13,73498.8,7.11,5.73,5.77,0,*7E
1505131265.61,22247,16.13,73494.5,7.11,5.59,5.59,0,*7B
1505131266.81,22248,16.13,73492.0,7.11,5.67,5.67,0,*74
1505131268.02,22249,16.13,73496.0,7.11,5.67,5.63,0,*71
1505131269.19,22250,16.13,73496.0,7.09,5.71,5.63,0,*77
1505131270.41,22251,16.13,73502.5,7.09,5.55,5.55,0,*75
1505131271.59,22252,16.13,73500.5,7.09,5.59,5.59,0,*76
1505131272.77,22253,16.13,73488.8,7.09,5.63,5.71,0,*74
1505131273.94,22254,16.13,73488.8,7.09,5.59,5.63,0,*79
1505131275.14,22255,16.13,73490.5,7.09,5.45,5.55,0,*70
1505131276.34,22256,16.13,73492.5,7.07,5.59,5.59,0,*7C
1505131277.55,22257,16.13,73498.8,7.09,5.73,5.71,0,*71
1505131278.72,22258,16.13,73498.0,7.09,5.59,5.63,0,*75
1505131279.9,22259,16.13,73498.8,7.09,5.71,5.71,0,*7D
1505131281.07,22260,16.13,73498.3,7.09,5.37,5.37,0,*77
1505131282.29,22261,16.13,73496.5,7.07,5.49,5.55,0,*75
1505131283.47,22262,16.13,73502.3,7.09,5.59,5.59,0,*75
1505131284.67,22263,16.13,73496.8,7.09,5.55,5.59,0,*78
1505131285.87,22264,16.13,73496.8,7.07,5.45,5.37,0,*78
1505131287.04,22265,16.13,73494.5,7.09,5.63,5.71,0,*71
1505131288.26,22266,16.13,73496.3,7.09,5.73,5.73,0,*71
1505131289.44,22267,16.13,73498.5,7.09,5.71,5.71,0,*70
1505131290.67,22268,16.13,73496.8,7.07,5.93,5.95,0,*77
1505131291.93,22269,16.13,73500.3,7.11,5.89,5.89,0,*77
1505131293.17,22270,16.13,73504.3,7.11,5.77,5.77,0,*7F
1505131294.37,22271,16.13,73504.5,7.07,5.71,5.71,0,*79
1505131295.59,22272,16.13,73506.3,7.09,5.73,5.73,0,*74
1505131296.77,22273,16.13,73500.8,7.09,5.71,5.71,0,*75
1505131298.02,22274,16.13,73504.5,7.07,5.73,5.81,0,*71
1505131299.19,22275,16.13,73500.3,7.09,5.59,5.71,0,*79
1505131300.45,22276,16.13,73506.3,7.07,5.81,5.81,0,*7E
1505131301.63,22277,16.13,73504.3,7.09,5.95,6.03,0,*7D
1505131302.81,22278,16.13,73506.5,7.09,5.95,6.03,0,*72
1505131304.0,22279,16.13,73504.8,7.09,6.03,6.03,0,*7F
1505131305.22,22280,16.13,73504.8,7.11,6.07,6.17,0,*71
1505131306.42,22281,16.13,73508.5,7.11,6.11,6.11,0,*71
1505131307.6,22282,16.13,73504.5,7.13,6.11,6.21,0,*73
1505131308.83,22283,16.13,73508.0,7.13,5.89,5.93,0,*7A
1505131310.08,22284,16.13,73506.0,7.11,5.73,5.85,0,*7D
1505131311.26,22285,16.13,73502.3,7.13,5.99,6.11,0,*74
1505131312.44,22286,16.13,73504.3,7.13,5.99,6.03,0,*74
1505131313.69,22287,16.13,73500.0,7.11,5.85,5.85,0,*77
1505131314.93,22288,16.13,73504.8,7.11,5.77,5.85,0,*75
1505131316.17,22289,16.13,73510.0,7.11,5.77,5.77,0,*79
1505131317.37,22290,16.13,73512.3,7.13,5.71,5.77,0,*75
1505131318.59,22291,16.13,73510.0,7.11,5.67,5.73,0,*75
1505131319.81,22292,16.13,73514.0,7.11,5.67,5.73,0,*76
1505131321.05,22293,16.13,73520.0,7.11,5.77,5.85,0,*7F
1505131322.28,22294,16.13,73522.3,7.11,5.67,5.73,0,*70
1505131323.5,22295,16.13,73526.3,7.11,5.73,5.63,0,*75
1505131324.7,22296,16.13,73516.3,7.09,5.49,5.51,0,*77
1505131325.9,22297,16.13,73518.8,7.09,5.49,5.55,0,*72
1505131327.08,22298,16.13,73512.5,7.09,5.11,5.23,0,*71
1505131328.26,22299,16.13,73526.0,7.09,5.33,5.33,0,*71
1505131329.47,22300,16.13,73522.0,7.07,5.33,5.33,0,*7E
1505131330.67,22301,16.13,73520.8,7.07,5.33,5.33,0,*7F
1505131331.92,22302,16.13,73510.0,7.07,5.27,5.27,0,*7C
1505131333.18,22303,16.13,73498.5,7.07,5.05,5.05,0,*7D
1505131334.39,22304,16.13,73508.8,7.07,5.11,5.11,0,*7A
1505131335.6,22305,16.13,73512.5,7.03,5.11,5.11,0,*7F
1505131336.77,22306,16.13,73518.0,7.05,5.33,5.41,0,*7F
1505131338.03,22307,16.13,73508.5,7.03,5.01,5.01,0,*7D
1505131339.24,22308,16.13,73512.8,7.03,5.11,5.11,0,*72
1505131340.45,22309,16.13,73514.8,7.03,5.07,5.11,0,*74
1505131341.71,22310,16.13,73518.5,6.99,5.05,5.05,0,*79
1505131342.97,22311,16.13,73512.3,6.99,4.97,4.97,0,*78
1505131344.17,22312,16.13,73510.3,6.97,5.11,5.05,0,*70
1505131345.35,22313,16.13,73514.3,6.97,5.11,5.11,0,*74
1505131346.53,22314,16.13,73500.5,6.97,5.15,5.23,0,*76
1505131347.76,22315,16.13,73502.8,6.97,4.93,5.01,0,*78
1505131348.99,22316,16.13,73500.5,6.97,5.01,5.05,0,*75
1505131350.2,22317,16.13,73504.0,6.95,5.11,5.15,0,*76
1505131351.4,22318,16.13,73498.3,6.95,5.11,5.11,0,*7D
1505131352.61,22319,16.13,73496.0,6.95,5.15,5.11,0,*78
1505131353.83,22320,16.13,73496.5,6.95,5.15,5.27,0,*77
1505131355.02,22321,16.13,73486.8,6.95,5.45,5.49,0,*7B
1505131356.21,22322,16.13,73480.5,6.93,5.23,5.23,0,*72
1505131357.47,22323,16.13,73486.8,6.95,5.01,5.01,0,*75
1505131358.67,22324,16.13,73472.5,6.93,4.89,4.97,0,*7B
1505131359.91,22325,16.13,73470.8,6.93,5.01,4.97,0,*7B
1505131361.14,22326,16.13,73462.5,6.93,4.97,5.01,0,*78
1505131362.35,22327,16.13,73456.8,6.95,5.23,5.23,0,*71
1505131363.62,22328,16.13,73434.0,6.91,4.97,4.97,0,*7A
1505131364.83,22329,16.13,73442.5,6.91,4.89,4.85,0,*77
1505131366.09,22330,16.13,73458.5,6.91,5.01,5.01,0,*73
1505131367.33,22331,16.13,73468.8,6.89,5.05,4.97,0,*71
1505131368.6,22332,16.13,73478.5,6.91,4.97,5.01,0,*7F
1505131369.84,22333,16.13,73482.3,6.91,5.07,5.01,0,*76
1505131371.04,22334,16.13,73480.0,6.91,5.29,5.23,0,*7D
1505131372.27,22335,16.13,73482.3,6.89,5.27,5.27,0,*7F
1505131373.47,22336,16.13,73472.3,6.91,5.41,5.41,0,*75
1505131374.64,22337,16.13,73474.3,6.89,5.45,5.45,0,*7D
1505131375.82,22338,16.13,73468.8,6.89,5.29,5.37,0,*7D
1505131377.04,22339,16.13,73474.3,6.89,5.51,5.55,0,*77
1505131378.22,22340,16.13,73476.5,6.89,5.67,5.71,0,*7A
1505131379.43,22341,16.13,73482.5,6.89,5.67,5.73,0,*79
1505131380.63,22342,16.13,73486.0,6.91,5.59,5.59,0,*76
1505131381.85,22343,16.13,73488.5,6.91,5.59,5.59,0,*77
1505131383.05,22344,16.13,73498.0,6.89,5.63,5.73,0,*78
1505131384.29,22345,16.13,73496.0,6.91,5.77,5.77,0,*71
1505131385.51,22346,16.13,73498.8,6.91,5.67,5.59,0,*7F
1505131386.74,22347,16.13,73492.3,6.91,5.99,5.93,0,*79
1505131387.98,22348,16.13,73496.8,6.91,5.89,5.99,0,*7D
1505131389.22,22349,16.13,73490.3,6.91,5.93,5.99,0,*77
1505131390.43,22350,16.13,73488.3,6.91,6.03,6.11,0,*76
1505131391.61,22351,16.13,73488.3,6.93,6.11,6.11,0,*76
1505131392.83,22352,16.13,73486.8,6.95,6.07,6.17,0,*72
1505131394.02,22353,16.13,73486.0,6.93,6.21,6.21,0,*74
1505131395.2,22354,16.13,73486.3,6.93,6.21,6.29,0,*7B
1505131396.4,22355,16.13,73484.5,6.95,6.29,6.29,0,*74
1505131397.61,22356,16.13,73492.8,6.95,6.03,5.95,0,*7B
1505131398.79,22357,16.13,73498.0,6.97,5.95,6.03,0,*78
1505131399.97,22358,16.13,73494.5,6.97,5.95,6.07,0,*73
1505131401.15,22359,16.13,73494.0,6.97,6.03,6.03,0,*7A
1505131402.32,22360,16.13,73496.3,6.97,6.07,6.07,0,*70
1505131403.52,22361,16.13,73502.0,6.97,6.07,6.13,0,*74
1505131404.72,22362,16.13,73506.8,6.99,6.21,6.29,0,*74
1505131405.93,22363,16.13,73510.0,6.99,6.21,6.29,0,*75
1505131407.18,22364,16.13,73512.5,6.99,6.17,6.17,0,*7A
1505131408.42,22365,16.13,73514.3,7.03,6.21,6.13,0,*78
1505131409.67,22366,16.13,73508.8,7.03,5.93,5.93,0,*7A
1505131410.9,22367,16.13,73512.8,7.03,6.11,6.13,0,*79
1505131412.11,22368,16.13,73510.8,7.03,6.03,6.11,0,*77
1505131413.33,22369,16.13,73510.5,7.03,5.71,5.77,0,*73
1505131414.56,22370,16.13,73510.3,7.03,5.71,5.81,0,*72
1505131415.74,22371,16.13,73512.3,7.05,5.67,5.67,0,*7A
1505131416.97,22372,16.13,73510.3,7.03,5.59,5.55,0,*73
1505131418.17,22373,16.13,73512.3,7.03,5.67,5.71,0,*79
1505131419.42,22374,16.13,73512.0,7.03,5.81,5.89,0,*71
1505131420.63,22375,16.13,73508.0,7.03,5.71,5.71,0,*78
1505131421.83,22376,16.13,73512.0,7.03,5.71,5.71,0,*7B
1505131423.07,22377,16.13,73508.0,6.99,5.77,5.77,0,*78
1505131424.3,22378,16.13,73518.0,6.99,5.67,5.73,0,*72
1505131425.55,22379,16.13,73516.5,6.99,5.85,5.89,0,*7A
1505131426.8,22380,16.13,73522.0,7.03,6.13,6.13,0,*72
1505131428.03,22381,16.13,73518.3,7.05,6.13,6.13,0,*75
1505131429.26,22382,16.13,73520.5,7.05,5.93,5.93,0,*76
1505131430.47,22383,16.13,73522.0,7.03,6.11,6.11,0,*71
1505131431.67,22384,16.13,73516.0,7.03,5.67,5.59,0,*7B
1505131432.9,22385,16.13,73518.0,7.05,5.51,5.51,0,*71
1505131434.14,22386,16.13,73512.5,7.03,5.55,5.55,0,*74
1505131435.35,22387,16.13,73520.8,7.03,5.71,5.71,0,*75
1505131436.55,22388,16.13,73518.0,7.03,5.71,5.71,0,*7A
1505131437.77,22389,16.13,73516.8,7.03,5.71,5.77,0,*7D
1505131438.99,22390,16.13,73516.5,7.03,5.71,5.77,0,*75
1505131440.2,22391,16.13,73516.5,7.03,5.71,5.67,0,*75
1505131441.41,22392,16.13,73512.0,7.03,5.67,5.71,0,*76
1505131442.65,22393,16.13,73512.3,7.03,5.77,5.77,0,*70
1505131443.87,22394,16.13,73514.0,7.03,5.71,5.77,0,*71
1505131445.11,22395,16.13,73514.5,7.03,5.93,5.99,0,*7C
1505131446.34,22396,16.13,73512.0,7.05,5.93,5.93,0,*73
1505131447.52,22397,16.13,73512.3,7.05,5.99,5.99,0,*72
1505131448.74,22398,16.13,73512.5,7.03,6.03,6.03,0,*7B
1505131449.95,22399,16.13,73514.8,7.03,5.99,5.99,0,*7A
1505131451.16,22400,16.13,73512.3,7.03,6.03,6.11,0,*7E
1505131452.41,22401,16.13,73512.8,7.03,5.89,5.89,0,*7C
1505131453.66,22402,16.13,73514.5,7.03,5.77,5.81,0,*76
1505131454.86,22403,16.13,73510.0,7.03,5.71,5.71,0,*7E
1505131456.07,22404,16.13,73514.8,7.03,5.67,5.71,0,*7E
1505131457.32,22405,16.13,73512.8,7.03,5.55,5.55,0,*78
1505131458.53,22406,16.13,73510.0,7.03,5.67,5.67,0,*7B
1505131459.71,22407,16.13,73512.5,7.05,5.67,5.67,0,*7C
1505131460.91,22408,16.13,73510.8,7.03,5.71,5.71,0,*75
1505131462.15,22409,16.13,73514.3,7.03,5.77,5.77,0,*74
1505131463.41,22410,16.13,73514.3,7.03,5.81,5.81,0,*7C
1505131464.62,22411,16.13,73514.8,7.05,5.89,5.99,0,*7A
1505131465.82,22412,16.13,73510.8,7.03,5.71,5.71,0,*7E
1505131467.02,22413,16.13,73514.0,7.03,5.71,5.71,0,*7F
1505131468.25,22414,16.13,73510.0,7.03,5.67,5.77,0,*79
1505131469.49,22415,16.13,73508.3,7.03,5.77,5.89,0,*78
1505131470.75,22416,16.13,73506.3,7.03,5.93,5.93,0,*7A
1505131472.0,22417,16.13,73506.5,7.07,5.81,5.85,0,*7B
1505131473.22,22418,16.13,73506.5,7.03,5.71,5.77,0,*72
1505131474.43,22419,16.13,73504.8,7.03,5.71,5.71,0,*75
1505131475.61,22420,16.13,73504.3,7.05,5.67,5.71,0,*7E
1505131476.82,22421,16.13,73508.0,7.03,5.67,5.67,0,*7E
1505131478.0,22422,16.13,73504.0,7.05,5.67,5.67,0,*7B
1505131479.25,22423,16.13,73504.8,7.03,5.81,5.81,0,*7C
1505131480.46,22424,16.13,73504.5,7.03,5.99,6.11,0,*78
1505131481.68,22425,16.13,73502.3,7.05,6.13,6.13,0,*7C
1505131482.87,22426,16.13,73498.5,7.05,6.03,6.11,0,*7C
1505131484.08,22427,16.13,73498.3,7.05,5.89,5.99,0,*7F
1505131485.33,22428,16.13,73496.0,7.03,5.81,5.89,0,*7F
1505131486.56,22429,16.13,73494.0,7.07,5.93,5.95,0,*74
1505131487.75,22430,16.13,73494.5,7.05,5.99,6.03,0,*78
1505131488.93,22431,16.13,73494.3,7.05,5.99,6.03,0,*79
1505131490.11,22432,16.13,73494.8,7.05,5.99,6.11,0,*79
1505131491.3,22433,16.13,73494.0,7.05,6.03,6.11,0,*78
1505131492.52,22434,16.13,73494.8,7.05,6.13,6.13,0,*7C
1505131493.75,22435,16.13,73496.3,7.05,6.13,6.13,0,*7D
1505131494.95,22436,16.13,73496.8,7.07,6.07,6.07,0,*7C
1505131496.13,22437,16.13,73500.0,7.09,6.03,6.07,0,*77
1505131497.38,22438,16.13,73500.8,7.07,6.17,6.17,0,*72
1505131498.62,22439,16.13,73500.0,7.07,6.29,6.35,0,*7E
1505131499.8,22440,16.13,73496.5,7.09,6.29,6.29,0,*73
1505131500.98,22441,16.13,73500.3,7.09,6.29,6.29,0,*72
1505131502.16,22442,16.13,73494.3,7.09,6.29,6.29,0,*71
1505131503.34,22443,16.13,73500.8,7.09,6.25,6.29,0,*7C
1505131504.54,22444,16.19,73500.8,7.09,6.13,6.25,0,*72
1505131505.77,22445,16.13,73498.0,7.09,5.81,5.85,0,*72
1505131506.99,22446,16.13,73498.0,7.09,5.73,5.85,0,*7C
1505131508.17,22447,16.13,73492.5,7.09,5.59,5.59,0,*74
1505131509.39,22448,16.13,73500.5,7.09,5.73,5.73,0,*7B
1505131510.58,22449,16.13,73504.5,7.09,6.03,6.03,0,*7A
1505131511.78,22450,16.13,73506.0,7.09,6.13,6.25,0,*77
1505131513.01,22451,16.13,73510.0,7.09,6.13,6.13,0,*73
1505131514.22,22452,16.13,73512.0,7.09,5.93,5.95,0,*76
1505131515.41,22453,16.13,73522.0,7.09,6.07,6.17,0,*70
1505131516.64,22454,16.13,73514.5,7.09,5.81,5.73,0,*7B
1505131517.88,22455,16.13,73508.0,7.07,5.55,5.55,0,*79
1505131519.08,22456,16.13,73496.8,7.09,5.55,5.49,0,*79
1505131520.29,22457,16.13,73506.8,7.09,6.03,5.93,0,*7F
1505131521.53,22458,16.13,73504.8,7.11,5.77,5.85,0,*7E
1505131522.7,22459,16.13,73522.5,7.09,5.45,5.45,0,*7B
1505131523.92,22460,16.13,73526.5,7.07,5.49,5.55,0,*72
1505131525.1,22461,16.13,73526.0,7.09,5.59,5.59,0,*70
1505131526.32,22462,16.13,73522.8,7.07,5.55,5.63,0,*78
1505131527.5,22463,16.13,73516.3,7.09,5.37,5.33,0,*76
1505131528.7,22464,16.13,73508.0,7.07,5.37,5.37,0,*7B
1505131529.9,22465,16.13,73514.8,7.07,5.59,5.59,0,*7A
1505131531.11,22466,16.13,73516.0,7.07,5.71,5.71,0,*79
1505131532.33,22467,16.13,73514.8,7.05,5.77,5.81,0,*73
1505131533.58,22468,16.13,73500.3,7.07,5.85,5.85,0,*77
1505131534.83,22469,16.13,73498.8,7.07,5.73,5.73,0,*76
1505131536.0,22470,16.13,73490.8,7.05,5.71,5.71,0,*7C
1505131537.18,22471,16.13,73492.3,7.05,5.71,5.71,0,*7D
1505131538.36,22472,16.13,73480.8,7.09,5.71,5.71,0,*72
1505131539.56,22473,16.13,73484.3,7.05,5.59,5.55,0,*73
1505131540.75,22474,16.13,73490.0,7.05,5.19,5.23,0,*71
1505131541.93,22475,16.13,73488.3,7.05,5.59,5.67,0,*74
1505131543.17,22476,16.13,73492.0,7.03,5.55,5.55,0,*7C
1505131544.4,22477,16.13,73500.3,7.05,5.51,5.55,0,*7F
1505131545.61,22478,16.13,73504.3,7.03,5.67,5.67,0,*72
1505131546.85,22479,16.13,73498.8,7.03,5.51,5.55,0,*77
1505131548.03,22480,16.13,73488.5,7.05,5.59,5.59,0,*73
1505131549.26,22481,16.13,73502.8,7.05,5.55,5.55,0,*72
1505131550.45,22482,16.13,73502.8,7.05,5.45,5.51,0,*74
1505131551.65,22483,16.13,73490.8,7.03,5.41,5.41,0,*76
1505131552.9,22484,16.13,73496.3,7.03,5.55,5.55,0,*71
1505131554.1,22485,16.13,73496.5,7.03,5.71,5.71,0,*70
1505131555.36,22486,16.13,73496.0,7.03,5.93,5.93,0,*73
1505131556.58,22487,16.13,73500.3,7.03,5.71,5.77,0,*74
1505131557.79,22488,16.13,73508.8,7.03,5.67,5.71,0,*7A
1505131559.01,22489,16.13,73504.3,7.03,5.71,5.77,0,*7A
1505131560.22,22490,16.13,73504.5,7.03,5.59,5.67,0,*79
1505131561.39,22491,16.13,73508.5,7.05,5.59,5.71,0,*79
1505131562.61,22492,16.13,73508.3,7.03,5.71,5.77,0,*70
1505131563.82,22493,16.13,73506.3,7.03,5.99,6.03,0,*77
1505131565.08,22494,16.13,73502.5,7.07,5.93,5.93,0,*74
1505131566.28,22495,16.13,73514.5,7.03,5.71,5.71,0,*71
1505131567.51,22496,16.19,73516.5,7.03,5.71,5.77,0,*74
1505131568.76,22497,16.13,73522.3,7.03,5.89,5.93,0,*78
1505131569.98,22498,16.13,73516.8,7.03,5.71,5.77,0,*7A
1505131571.24,22499,16.13,73524.0,7.03,5.93,5.93,0,*7D
1505131572.48,22500,16.13,73522.5,7.03,5.77,5.77,0,*7C
1505131573.69,22501,16.13,73526.0,7.03,5.71,5.71,0,*7D
1505131574.89,22502,16.13,73528.5,7.03,5.67,5.67,0,*7E
1505131576.1,22503,16.13,73530.5,7.03,5.67,5.71,0,*78
1505131577.31,22504,16.13,73528.0,7.03,5.67,5.67,0,*78
1505131578.53,22505,16.13,73520.8,7.03,5.71,5.77,0,*7F
1505131579.75,22506,16.13,73526.3,7.05,5.77,5.81,0,*75
1505131581.01,22507,16.13,73526.3,7.03,5.89,5.89,0,*7B
1505131582.26,22508,16.13,73526.0,7.03,5.93,5.93,0,*74
1505131583.47,22509,16.13,73526.8,7.03,5.99,6.11,0,*76
1505131584.68,22510,16.13,73522.0,7.05,5.93,5.99,0,*71
1505131585.89,22511,16.13,73522.0,7.03,6.21,6.21,0,*7C
1505131587.1,22512,16.13,73516.5,7.03,6.33,6.33,0,*7F
1505131588.29,22513,16.13,73514.3,7.05,6.25,6.33,0,*7F
1505131589.47,22514,16.13,73518.8,7.05,6.11,6.21,0,*7C
1505131590.67,22515,16.19,73518.3,7.05,6.13,6.21,0,*7F
1505131591.86,22516,16.13,73516.5,7.05,6.21,6.25,0,*79
1505131593.06,22517,16.13,73518.8,7.05,6.13,6.21,0,*7D
1505131594.25,22518,16.13,73516.8,7.05,6.21,6.25,0,*77
1505131595.45,22519,16.13,73512.3,7.09,6.13,6.25,0,*7B
1505131596.67,22520,16.13,73512.3,7.07,6.07,6.13,0,*7F
1505131597.87,22521,16.13,73510.8,7.09,6.17,6.25,0,*74
1505131599.05,22522,16.13,73518.8,7.09,6.29,6.29,0,*76
1505131600.29,22523,16.13,73514.8,7.09,6.35,6.35,0,*77
1505131601.47,22524,16.13,73516.8,7.09,6.25,6.25,0,*70
1505131602.7,22525,16.13,73518.5,7.09,6.13,6.17,0,*75
1505131603.93,22526,16.13,73522.8,7.11,6.21,6.17,0,*7E
1505131605.13,22527,16.13,73516.5,7.11,6.07,6.11,0,*7D
1505131606.34,22528,16.13,73526.3,7.11,5.99,5.99,0,*75
1505131607.54,22529,16.13,73526.3,7.11,5.95,5.99,0,*78
1505131608.77,22530,16.13,73524.5,7.13,5.81,5.81,0,*7E
1505131610.01,22531,16.13,73520.3,7.11,5.73,5.77,0,*79
1505131611.22,22532,16.13,73518.8,7.11,5.67,5.67,0,*7E
1505131612.43,22533,16.13,73518.8,7.11,5.67,5.67,0,*7F
1505131613.6,22534,16.13,73514.0,7.09,5.59,5.71,0,*7B
1505131614.83,22535,16.13,73510.5,7.07,5.59,5.55,0,*72
1505131616.06,22536,16.13,73508.0,7.11,5.95,5.89,0,*77
1505131617.26,22537,16.13,73506.8,7.11,5.99,6.07,0,*7F
1505131618.5,22538,16.13,73506.8,7.11,5.73,5.77,0,*70
1505131619.68,22539,16.13,73506.8,7.09,5.71,5.71,0,*7C
1505131620.9,22540,16.13,73508.8,7.07,5.71,5.73,0,*7E
1505131622.08,22541,16.13,73500.3,7.09,5.15,5.23,0,*76
1505131623.32,22542,16.13,73498.5,7.07,5.05,5.11,0,*7B
1505131624.55,22543,16.13,73502.3,7.07,5.01,5.11,0,*7E
1505131625.74,22544,16.13,73502.5,7.05,5.07,5.11,0,*7D
1505131626.91,22545,16.13,73496.8,7.05,5.23,5.29,0,*71
1505131628.12,22546,16.13,73498.5,7.03,5.23,5.33,0,*7F
1505131629.34,22547,16.13,73510.0,7.05,5.55,5.55,0,*79
1505131630.55,22548,16.13,73512.3,7.03,5.19,5.19,0,*70
1505131631.77,22549,16.13,73514.0,7.03,5.19,5.23,0,*78
1505131632.95,22550,16.13,73512.3,7.05,5.33,5.33,0,*7F
1505131634.15,22551,16.13,73514.8,6.99,5.41,5.41,0,*7A
1505131635.38,22552,16.13,73514.3,6.99,5.41,5.51,0,*78
1505131636.62,22553,16.13,73514.8,7.03,5.55,5.51,0,*7E
1505131637.83,22554,16.13,73516.3,7.03,5.59,5.59,0,*7D
1505131639.04,22555,16.13,73516.8,7.03,5.67,5.67,0,*7C
1505131640.24,22556,16.13,73514.5,6.99,5.63,5.63,0,*7D
1505131641.49,22557,16.13,73518.5,6.99,5.51,5.55,0,*78
1505131642.7,22558,16.13,73516.5,6.99,5.63,5.63,0,*73
1505131643.95,22559,16.13,73518.3,6.99,5.85,5.85,0,*72
1505131645.2,22560,16.13,73514.3,6.99,5.85,5.89,0,*74
1505131646.45,22561,16.13,73518.5,7.03,5.81,5.81,0,*7B
1505131647.66,22562,16.13,73514.0,7.03,5.71,5.71,0,*78
1505131648.87,22563,16.13,73514.5,6.99,5.63,5.67,0,*7F
1505131650.07,22564,16.13,73512.5,7.03,5.71,5.71,0,*7E
1505131651.32,22565,16.13,73510.0,7.03,5.89,5.93,0,*74
1505131652.53,22566,16.13,73506.0,7.03,5.99,5.99,0,*7C
1505131653.75,22567,16.13,73508.8,7.03,6.03,6.11,0,*7E
1505131654.98,22568,16.13,73510.0,7.03,5.93,6.03,0,*78
1505131656.21,22569,16.13,73508.0,7.03,5.67,5.77,0,*72
1505131657.45,22570,16.13,73506.0,7.03,5.77,5.77,0,*7B
1505131658.66,22571,16.13,73504.8,7.03,5.67,5.71,0,*7D
1505131659.86,22572,16.13,73508.3,7.03,5.59,5.59,0,*79
1505131661.09,22573,16.13,73510.0,7.03,5.55,5.67,0,*79
1505131662.34,22574,16.13,73508.3,7.03,5.77,5.81,0,*76
1505131663.58,22575,16.13,73498.3,6.99,5.51,5.55,0,*78
1505131664.83,22576,16.13,73502.5,6.99,5.77,5.85,0,*72
1505131666.06,22577,16.13,73500.8,7.05,5.81,5.93,0,*79
1505131667.23,22578,16.13,73500.5,7.05,5.67,5.71,0,*72
1505131668.48,22579,16.13,73512.3,7.03,5.51,5.51,0,*72
1505131669.69,22580,16.13,73500.0,7.03,5.59,5.59,0,*74
1505131670.9,22581,16.13,73508.8,7.03,5.67,5.67,0,*75
1505131672.1,22582,16.13,73500.0,7.03,5.71,5.71,0,*76
1505131673.35,22583,16.13,73496.3,7.03,5.55,5.55,0,*77
1505131674.6,22584,16.13,73498.5,7.03,5.51,5.55,0,*74
1505131675.82,22585,16.13,73500.0,7.03,5.77,5.71,0,*77
1505131677.05,22586,16.13,73500.0,6.99,5.67,5.73,0,*75
1505131678.29,22587,16.13,73498.0,6.99,5.77,5.77,0,*71
1505131679.49,22588,16.13,73502.8,7.03,5.71,5.71,0,*7C
1505131680.74,22589,16.13,73508.0,7.03,5.77,5.81,0,*74
1505131681.95,22590,16.13,73504.0,7.03,5.99,6.03,0,*75
1505131683.2,22591,16.13,73508.5,7.03,5.89,5.89,0,*74
1505131684.41,22592,16.13,73506.0,7.03,5.67,5.71,0,*70
1505131685.62,22593,16.13,73504.0,7.03,5.67,5.71,0,*71
1505131686.83,22594,16.13,73512.0,7.03,5.67,5.67,0,*71
1505131688.05,22595,16.13,73510.5,7.03,5.67,5.77,0,*71
1505131689.26,22596,16.13,73506.5,7.03,5.71,5.71,0,*73
1505131690.5,22597,16.13,73510.5,7.03,5.77,5.81,0,*7B
1505131691.71,22598,16.13,73506.5,7.03,5.59,5.67,0,*70
1505131692.95,22599,16.13,73508.5,7.03,5.51,5.55,0,*78
1505131694.2,22600,16.13,73502.5,7.03,5.51,5.51,0,*7F
1505131695.42,22601,16.13,73508.0,6.99,5.19,5.19,0,*7C
1505131696.62,22602,16.13,73510.3,6.97,5.23,5.27,0,*75
1505131697.82,22603,16.13,73506.5,6.99,5.37,5.37,0,*7E
1505131698.99,22604,16.13,73502.5,6.97,5.63,5.63,0,*77
1505131700.21,22605,16.13,73506.8,6.97,5.51,5.51,0,*76
1505131701.38,22606,16.13,73506.0,6.97,5.45,5.49,0,*79
1505131702.63,22607,16.13,73506.5,6.99,5.51,5.55,0,*7E
1505131703.8,22608,16.13,73510.8,6.97,5.37,5.37,0,*7B
1505131704.97,22609,16.13,73508.3,6.97,5.37,5.49,0,*73
1505131706.13,22610,16.13,73502.8,6.97,5.37,5.37,0,*72
1505131707.31,22611,16.13,73504.0,6.97,5.33,5.33,0,*73
1505131708.48,22612,16.13,73504.5,6.97,5.37,5.45,0,*75
1505131709.67,22613,16.13,73502.3,6.95,5.49,5.49,0,*73
1505131710.89,22614,16.13,73498.5,6.95,5.51,5.49,0,*7D
1505131712.1,22615,16.13,73504.8,6.95,5.59,5.59,0,*75
1505131713.29,22616,16.13,73502.3,6.95,5.45,5.49,0,*7A
1505131714.49,22617,16.13,73504.3,6.93,5.55,5.59,0,*7D
1505131715.68,22618,16.13,73506.3,6.93,5.55,5.49,0,*73
1505131716.89,22619,16.13,73500.0,6.95,5.59,5.59,0,*79
1505131718.07,22620,16.13,73514.3,6.93,5.63,5.59,0,*7C
1505131719.27,22621,16.13,73504.3,6.95,5.59,5.71,0,*78
1505131720.49,22622,16.13,73502.5,6.95,5.71,5.73,0,*73
1505131721.67,22623,16.13,73508.8,6.93,5.59,5.59,0,*76
1505131722.85,22624,16.13,73510.0,6.93,5.67,5.67,0,*71
1505131724.04,22625,16.13,73506.8,6.97,5.71,5.73,0,*76
1505131725.29,22626,16.13,73502.3,6.95,5.73,5.81,0,*78
1505131726.51,22627,16.13,73504.8,6.97,5.73,5.81,0,*7B
1505131727.72,22628,16.13,73506.8,6.95,5.63,5.71,0,*78
1505131728.96,22629,16.13,73504.8,6.95,5.81,5.93,0,*79